Location: Medlow Airstrip Trail, Medlow Bath NSW 2780, Australia
(33.6682°S, 150.3233°E)
Time: 16:58:52
(UTC+11:00)

Explorer 11/Cluster Stage 4 - Pass Details

Date: 26 September 2019
Orbit: 467 x 1259 km, 28.8° (Epoch: 20 October)

Event Time Altitude Azimuth Distance (km) Brightness Sun altitude
Rises 14:15:56 0° 280° (W) 3,688 10.7 42.9°
Reaches altitude 10° 14:20:08 10° 305° (NW) 2,904 10.6 42.2°
Maximum altitude 14:23:23 13° 332° (NNW) 2,753 10.4 41.6°
Drops below altitude 10° 14:26:50 10° 359° (N) 3,102 10.1 41.0°
Sets 14:31:40 0° 22° (NNE) 4,152 10.4 40.2°
